M I D A S
Marine Information and Data Acquisition System
Tripno 933 of the Zeeleeuw from 2005-08-23 06:48:49 to 2005-08-23 13:22:24
Back to CruiseResearch ActivitiesStationsMapUnderway DataData graphs

EquipmentUnitsComments
TimeDGPSUTC
LatitudeDGPSDM.mWGS84
LongitudeDGPSDM.mWGS84
SpeedMeteo Stationm/sRelative wind speed
DirectionMeteo StationdegRelative wind direction
TemperatureMeteo Stationdeg CelciusAir temperature
PressureMeteo StationPaAtmospheric pressure
HumidityMeteo Station%Relative humidity
Missing or incorrect values are displayed as -999
Metereological data collected by the RV Zeeleeuw from 2005-08-23 06:32:17 to 2005-08-23 13:21:20
                                                                                    Next 1000 lines
Time Latitude Longitude Speed Direction Temperature Pressure Humidity
2005-08-23 06:32:28 51°13.598 2°56.089 3.5 263 16.6 101510 94
2005-08-23 06:32:32 51°13.598 2°56.087 5.1 227 16.6 101510 94
2005-08-23 06:32:37 51°13.599 2°56.082 4.2 234 16.6 101510 94
2005-08-23 06:32:43 51°13.601 2°56.075 7.4 244 16.6 101510 94
2005-08-23 06:32:48 51°13.602 2°56.069 6.1 234 16.6 101510 94
2005-08-23 06:32:53 51°13.604 2°56.061 7.3 228 16.6 101510 94
2005-08-23 06:32:59 51°13.606 2°56.052 8.6 230 16.6 101510 94
2005-08-23 06:33:03 51°13.608 2°56.045 6.3 216 16.7 101510 94
2005-08-23 06:33:08 51°13.61 2°56.037 8 212 16.7 101510 94
2005-08-23 06:33:13 51°13.612 2°56.029 8.5 224 16.6 101510 94
2005-08-23 06:33:18 51°13.614 2°56.02 6.2 230 16.6 101510 94
2005-08-23 06:33:23 51°13.616 2°56.011 8.3 227 16.7 101520 94
2005-08-23 06:33:29 51°13.619 2°56.001 7.5 210 16.7 101520 94
2005-08-23 06:33:34 51°13.621 2°55.993 8.1 211 16.6 101520 94
2005-08-23 06:33:39 51°13.623 2°55.984 7.3 206 16.6 101520 94
2005-08-23 06:33:43 51°13.626 2°55.976 9 225 16.6 101520 94
2005-08-23 06:33:48 51°13.629 2°55.967 8.8 200 16.6 101520 94
2005-08-23 06:33:53 51°13.631 2°55.958 9.2 216 16.6 101520 94
2005-08-23 06:33:59 51°13.635 2°55.948 8.6 213 16.6 101520 94
2005-08-23 06:34:03 51°13.638 2°55.94 8.3 215 16.6 101510 94
2005-08-23 06:34:08 51°13.642 2°55.932 8.3 215 16.6 101510 94
2005-08-23 06:34:13 51°13.646 2°55.923 7.3 201 16.6 101510 94
2005-08-23 06:34:19 51°13.651 2°55.914 10.8 201 16.6 101510 94
2005-08-23 06:34:23 51°13.655 2°55.906 10.9 221 16.6 101510 93
2005-08-23 06:34:28 51°13.661 2°55.897 8.7 228 16.6 101510 93
2005-08-23 06:34:33 51°13.666 2°55.887 8.7 217 16.6 101520 93
2005-08-23 06:34:39 51°13.672 2°55.877 9.6 211 16.6 101520 93
2005-08-23 06:34:43 51°13.676 2°55.868 8.4 210 16.6 101520 93
2005-08-23 06:34:48 51°13.682 2°55.858 9.3 215 16.6 101520 93
2005-08-23 06:34:53 51°13.686 2°55.848 10 217 16.6 101530 93
2005-08-23 06:34:59 51°13.691 2°55.838 13.2 218 16.6 101530 93
2005-08-23 06:35:03 51°13.695 2°55.829 9.4 221 16.6 101530 93
2005-08-23 06:35:08 51°13.698 2°55.82 13 227 16.6 101530 93
2005-08-23 06:35:13 51°13.702 2°55.811 13.9 228 16.6 101520 93
2005-08-23 06:35:19 51°13.706 2°55.801 12 232 16.6 101520 93
2005-08-23 06:35:24 51°13.708 2°55.792 9.3 236 16.6 101530 92
2005-08-23 06:35:28 51°13.711 2°55.784 9.2 230 16.6 101530 92
2005-08-23 06:35:33 51°13.713 2°55.775 11.2 229 16.6 101540 92
2005-08-23 06:35:38 51°13.716 2°55.766 13.1 229 16.6 101540 92
2005-08-23 06:35:43 51°13.718 2°55.757 9.3 236 16.6 101520 92
2005-08-23 06:35:48 51°13.72 2°55.749 10.3 235 16.6 101520 92
2005-08-23 06:35:53 51°13.722 2°55.743 6.2 249 16.6 101530 92
2005-08-23 06:35:59 51°13.723 2°55.74 6.5 254 16.6 101530 92
2005-08-23 06:36:03 51°13.723 2°55.739 5.5 261 16.6 101530 92
2005-08-23 06:36:09 51°13.723 2°55.742 6.6 262 16.6 101530 92
2005-08-23 06:36:14 51°13.723 2°55.746 10.5 285 16.6 101530 92
2005-08-23 06:36:19 51°13.724 2°55.751 9.4 288 16.6 101530 92
2005-08-23 06:36:23 51°13.725 2°55.754 9.8 287 16.6 101520 92
2005-08-23 06:36:28 51°13.726 2°55.757 10.4 296 16.6 101520 92
2005-08-23 06:36:32 51°13.726 2°55.757 9.4 286 16.6 101520 92
2005-08-23 06:36:38 51°13.725 2°55.756 10.2 285 16.6 101520 92
2005-08-23 06:36:43 51°13.725 2°55.754 10.2 281 16.6 101520 92
2005-08-23 06:36:47 51°13.723 2°55.751 10.1 274 16.6 101520 92
2005-08-23 06:36:53 51°13.721 2°55.745 8.4 284 16.6 101510 91
2005-08-23 06:36:59 51°13.719 2°55.739 8.5 289 16.6 101510 91
2005-08-23 06:37:03 51°13.717 2°55.734 7.8 287 16.6 101520 91
2005-08-23 06:37:08 51°13.715 2°55.728 8.4 280 16.6 101520 91
2005-08-23 06:37:14 51°13.713 2°55.722 6.4 284 16.6 101500 91
2005-08-23 06:37:18 51°13.712 2°55.719 8.7 279 16.6 101500 91
2005-08-23 06:37:23 51°13.711 2°55.717 9.8 283 16.6 101520 91
2005-08-23 06:37:28 51°13.711 2°55.716 7.7 284 16.6 101520 91
2005-08-23 06:37:33 51°13.71 2°55.716 9.6 299 16.6 101520 91
2005-08-23 06:37:39 51°13.711 2°55.717 9.6 312 16.6 101520 91
2005-08-23 06:37:43 51°13.712 2°55.718 8.1 229 16.6 101510 91
2005-08-23 06:37:48 51°13.714 2°55.72 8.9 326 16.6 101510 91
2005-08-23 06:37:53 51°13.716 2°55.722 8 333 16.6 101510 91
2005-08-23 06:37:59 51°13.72 2°55.725 9.2 321 16.6 101510 91
2005-08-23 06:38:03 51°13.724 2°55.726 9.8 333 16.6 101520 91
2005-08-23 06:38:07 51°13.727 2°55.727 7.6 4 16.6 101520 91
2005-08-23 06:38:13 51°13.733 2°55.727 9.6 2 16.6 101510 91
2005-08-23 06:38:18 51°13.738 2°55.725 9.1 9 16.6 101510 91
2005-08-23 06:38:23 51°13.743 2°55.722 9.6 17 16.6 101500 91
2005-08-23 06:38:28 51°13.748 2°55.717 8 30 16.6 101500 91
2005-08-23 06:38:33 51°13.753 2°55.713 10.3 18 16.6 101500 91
2005-08-23 06:38:38 51°13.758 2°55.707 12.2 30 16.6 101500 91
2005-08-23 06:38:43 51°13.762 2°55.702 10 4 16.6 101500 91
2005-08-23 06:38:47 51°13.767 2°55.697 12.6 22 16.6 101500 91
2005-08-23 06:38:53 51°13.773 2°55.69 10.9 14 16.6 101500 91
2005-08-23 06:38:57 51°13.777 2°55.686 11.9 34 16.6 101500 91
2005-08-23 06:39:03 51°13.783 2°55.678 11 23 16.6 101500 91
2005-08-23 06:39:07 51°13.789 2°55.672 12.2 33 16.6 101500 91
2005-08-23 06:39:12 51°13.794 2°55.667 11.6 30 16.6 101500 91
2005-08-23 06:39:18 51°13.801 2°55.659 12.5 21 16.6 101500 91
2005-08-23 06:39:23 51°13.807 2°55.653 12.9 23 16.6 101490 91
2005-08-23 06:39:28 51°13.815 2°55.645 12.1 20 16.6 101490 91
2005-08-23 06:39:32 51°13.821 2°55.64 11.1 22 16.6 101500 91
2005-08-23 06:39:37 51°13.83 2°55.632 12.3 15 16.6 101500 91
2005-08-23 06:39:42 51°13.839 2°55.625 11.1 22 16.6 101490 91
2005-08-23 06:39:47 51°13.847 2°55.619 10.7 20 16.6 101490 91
2005-08-23 06:39:52 51°13.858 2°55.611 12 16 16.6 101480 91
2005-08-23 06:39:55 51°13.864 2°55.606 12 29 16.6 101480 91
2005-08-23 06:40:03 51°13.879 2°55.594 11.5 21 16.7 101490 92
2005-08-23 06:40:08 51°13.891 2°55.585 11.9 18 16.7 101490 92
2005-08-23 06:40:11 51°13.898 2°55.581 11.8 18 16.7 101500 92
2005-08-23 06:40:18 51°13.913 2°55.569 11.4 10 16.7 101500 92
2005-08-23 06:40:23 51°13.923 2°55.561 12.1 15 16.7 101500 92
2005-08-23 06:40:27 51°13.932 2°55.555 12.4 18 16.7 101500 92
2005-08-23 06:40:33 51°13.947 2°55.545 12.6 13 16.7 101490 92
2005-08-23 06:40:38 51°13.958 2°55.536 12.2 18 16.7 101490 92
2005-08-23 06:40:43 51°13.97 2°55.528 12.7 16 16.7 101510 92
2005-08-23 06:40:47 51°13.98 2°55.521 11.6 20 16.7 101510 92
2005-08-23 06:40:52 51°13.992 2°55.512 12.4 21 16.8 101510 92
2005-08-23 06:40:58 51°14.006 2°55.502 12.2 13 16.8 101510 92
2005-08-23 06:41:03 51°14.018 2°55.494 11 20 16.8 101490 93
2005-08-23 06:41:08 51°14.031 2°55.484 12.2 13 16.8 101490 93
2005-08-23 06:41:13 51°14.042 2°55.476 12.1 13 16.8 101490 93
2005-08-23 06:41:18 51°14.054 2°55.469 12.8 18 16.8 101490 93
2005-08-23 06:41:23 51°14.066 2°55.46 13.5 24 16.8 101500 93
2005-08-23 06:41:27 51°14.076 2°55.454 11.7 12 16.8 101500 93
2005-08-23 06:41:32 51°14.089 2°55.445 12.8 23 16.9 101500 93
2005-08-23 06:41:37 51°14.101 2°55.436 11.2 16 16.9 101500 93
2005-08-23 06:41:42 51°14.113 2°55.428 11.4 15 16.8 101500 93
2005-08-23 06:41:47 51°14.126 2°55.418 14.3 20 16.8 101500 93
2005-08-23 06:41:53 51°14.14 2°55.407 16.2 28 16.8 101490 93
2005-08-23 06:41:57 51°14.151 2°55.398 11 31 16.8 101490 93
2005-08-23 06:42:02 51°14.163 2°55.387 14.1 24 16.8 101500 93
2005-08-23 06:42:07 51°14.175 2°55.374 12.1 28 16.8 101500 93
2005-08-23 06:42:11 51°14.184 2°55.365 14.1 27 16.8 101480 92
2005-08-23 06:42:18 51°14.199 2°55.347 11.9 35 16.8 101480 92
2005-08-23 06:42:23 51°14.21 2°55.334 14.8 22 16.8 101490 92
2005-08-23 06:42:27 51°14.219 2°55.322 13 31 16.8 101490 92
2005-08-23 06:42:33 51°14.234 2°55.303 13.5 37 16.7 101490 92
2005-08-23 06:42:35 51°14.236 2°55.299 13.5 37 16.7 101490 92
2005-08-23 06:42:42 51°14.252 2°55.274 11.8 36 16.7 101490 92
2005-08-23 06:42:48 51°14.263 2°55.254 12.7 35 16.7 101490 92
2005-08-23 06:42:52 51°14.271 2°55.24 13.4 35 16.7 101500 92
2005-08-23 06:42:58 51°14.282 2°55.218 13.4 38 16.7 101500 92
2005-08-23 06:43:03 51°14.29 2°55.201 13.9 35 16.7 101500 92
2005-08-23 06:43:07 51°14.298 2°55.184 8.4 18 16.7 101500 92
2005-08-23 06:43:12 51°14.307 2°55.164 11.2 28 16.7 101500 92
2005-08-23 06:43:18 51°14.318 2°55.143 12.1 27 16.7 101500 92
2005-08-23 06:43:23 51°14.327 2°55.124 16.3 36 16.7 101500 92
2005-08-23 06:43:27 51°14.336 2°55.106 15.4 29 16.7 101500 92
2005-08-23 06:43:33 51°14.348 2°55.084 15.7 30 16.7 101490 92
2005-08-23 06:43:38 51°14.359 2°55.064 16.8 32 16.7 101490 92
2005-08-23 06:43:43 51°14.37 2°55.047 15.8 31 16.7 101510 93
2005-08-23 06:43:47 51°14.38 2°55.031 15.5 31 16.7 101510 93
2005-08-23 06:43:51 51°14.39 2°55.017 15.1 30 16.7 101470 93
2005-08-23 06:43:55 51°14.399 2°55.002 16.1 27 16.7 101470 93
2005-08-23 06:44:03 51°14.417 2°54.975 14.5 27 16.7 101480 92
2005-08-23 06:44:07 51°14.428 2°54.958 15.6 19 16.7 101480 92
2005-08-23 06:44:12 51°14.441 2°54.941 15.8 19 16.7 101480 92
2005-08-23 06:44:18 51°14.456 2°54.922 16.6 16 16.7 101480 92
2005-08-23 06:44:23 51°14.469 2°54.906 16.5 17 16.7 101480 92
2005-08-23 06:44:28 51°14.483 2°54.888 16.5 17 16.7 101480 92
2005-08-23 06:44:32 51°14.496 2°54.873 16.7 16 16.7 101490 92
2005-08-23 06:44:36 51°14.507 2°54.86 15.6 14 16.7 101490 92
2005-08-23 06:44:43 51°14.525 2°54.839 16.3 15 16.7 101490 92
2005-08-23 06:44:48 51°14.54 2°54.822 17 15 16.7 101490 92
2005-08-23 06:44:52 51°14.553 2°54.809 17.6 16 16.7 101480 92
2005-08-23 06:44:57 51°14.568 2°54.793 16.6 15 16.7 101480 92
2005-08-23 06:45:03 51°14.583 2°54.777 16.8 13 16.7 101490 92
2005-08-23 06:45:07 51°14.598 2°54.763 16.5 15 16.7 101490 92
2005-08-23 06:45:12 51°14.613 2°54.748 16 15 16.7 101480 92
2005-08-23 06:45:17 51°14.628 2°54.735 17 15 16.7 101480 92
2005-08-23 06:45:23 51°14.645 2°54.719 17.2 19 16.7 101470 91
2005-08-23 06:45:27 51°14.657 2°54.706 15.6 16 16.7 101470 91
2005-08-23 06:45:33 51°14.675 2°54.688 15.3 14 16.7 101470 91
2005-08-23 06:45:38 51°14.69 2°54.673 16.3 13 16.7 101470 91
2005-08-23 06:45:43 51°14.705 2°54.658 15.6 18 16.7 101490 91
2005-08-23 06:45:48 51°14.72 2°54.643 16.3 17 16.7 101490 91
2005-08-23 06:45:53 51°14.735 2°54.627 17.5 15 16.7 101490 91
2005-08-23 06:45:58 51°14.752 2°54.61 17.7 18 16.7 101490 91
2005-08-23 06:46:03 51°14.765 2°54.596 16.7 19 16.7 101500 92
2005-08-23 06:46:07 51°14.779 2°54.582 17.8 16 16.7 101500 92
2005-08-23 06:46:13 51°14.796 2°54.565 17.7 16 16.7 101490 92
2005-08-23 06:46:17 51°14.809 2°54.552 17.9 18 16.7 101490 92
2005-08-23 06:46:23 51°14.825 2°54.535 18.7 18 16.7 101470 91
2005-08-23 06:46:27 51°14.838 2°54.522 18.2 18 16.7 101470 91
2005-08-23 06:46:33 51°14.856 2°54.505 17.6 18 16.7 101480 91
2005-08-23 06:46:37 51°14.87 2°54.492 18.1 18 16.7 101480 91
2005-08-23 06:46:43 51°14.887 2°54.476 16.9 17 16.7 101470 91
2005-08-23 06:46:47 51°14.899 2°54.464 17 19 16.7 101470 91
2005-08-23 06:46:51 51°14.911 2°54.453 15.9 14 16.7 101480 91
2005-08-23 06:46:58 51°14.933 2°54.43 17.2 20 16.7 101480 91
2005-08-23 06:47:03 51°14.946 2°54.417 16.6 19 16.7 101470 91
2005-08-23 06:47:08 51°14.962 2°54.401 16.7 20 16.7 101470 91
2005-08-23 06:47:11 51°14.972 2°54.391 16.6 16 16.7 101490 91
2005-08-23 06:47:17 51°14.991 2°54.373 15.4 17 16.7 101490 91
2005-08-23 06:47:22 51°15.006 2°54.358 16.4 16 16.7 101490 91
2005-08-23 06:47:27 51°15.021 2°54.343 16.7 14 16.7 101490 91
2005-08-23 06:47:33 51°15.039 2°54.325 17.6 16 16.7 101480 92
2005-08-23 06:47:36 51°15.048 2°54.316 16.5 17 16.7 101480 92
2005-08-23 06:47:43 51°15.068 2°54.296 17.3 16 16.8 101490 92
2005-08-23 06:47:48 51°15.084 2°54.281 17.1 18 16.8 101490 92
2005-08-23 06:47:53 51°15.099 2°54.266 17.3 18 16.8 101500 92
2005-08-23 06:47:58 51°15.114 2°54.252 17.2 15 16.8 101500 92
2005-08-23 06:48:03 51°15.13 2°54.237 17.7 16 16.8 101480 92
2005-08-23 06:48:07 51°15.144 2°54.225 17 17 16.8 101480 92
2005-08-23 06:48:11 51°15.154 2°54.215 17.1 19 16.8 101480 91
2005-08-23 06:48:15 51°15.167 2°54.202 16.6 19 16.8 101480 91
2005-08-23 06:48:23 51°15.191 2°54.178 17.8 15 16.7 101470 91
2005-08-23 06:48:27 51°15.205 2°54.164 17.3 15 16.7 101470 91
2005-08-23 06:48:32 51°15.22 2°54.149 17.2 18 16.7 101490 91
2005-08-23 06:48:37 51°15.236 2°54.134 16.2 16 16.7 101490 91
2005-08-23 06:48:43 51°15.252 2°54.118 16.6 19 16.7 101490 92
2005-08-23 06:48:47 51°15.265 2°54.106 16.3 19 16.7 101490 92
2005-08-23 06:48:51 51°15.279 2°54.092 15.7 20 16.7 101480 92
2005-08-23 06:48:58 51°15.299 2°54.071 17.3 13 16.7 101480 92
2005-08-23 06:49:03 51°15.316 2°54.054 17.6 16 16.7 101480 92
2005-08-23 06:49:07 51°15.328 2°54.042 17.9 15 16.7 101480 92
2005-08-23 06:49:12 51°15.343 2°54.026 17.6 16 16.7 101490 92
2005-08-23 06:49:17 51°15.359 2°54.01 16.8 18 16.7 101490 92
2005-08-23 06:49:23 51°15.375 2°53.994 16.2 14 16.7 101500 92
2005-08-23 06:49:27 51°15.387 2°53.981 17.8 15 16.7 101500 92
2005-08-23 06:49:32 51°15.404 2°53.964 18.7 16 16.7 101500 91
2005-08-23 06:49:37 51°15.419 2°53.947 18.7 15 16.7 101500 91
2005-08-23 06:49:43 51°15.435 2°53.929 17.9 15 16.7 101480 92
2005-08-23 06:49:47 51°15.448 2°53.915 18.3 15 16.7 101480 92
2005-08-23 06:49:53 51°15.465 2°53.897 17.5 17 16.7 101490 92
2005-08-23 06:49:58 51°15.48 2°53.882 17.1 19 16.7 101490 92
2005-08-23 06:50:03 51°15.495 2°53.866 16.4 17 16.7 101480 92
2005-08-23 06:50:07 51°15.507 2°53.854 18.4 16 16.7 101480 92
2005-08-23 06:50:12 51°15.524 2°53.837 18.5 16 16.7 101490 92
2005-08-23 06:50:18 51°15.542 2°53.818 17.6 15 16.7 101490 92
2005-08-23 06:50:23 51°15.556 2°53.804 18.8 16 16.7 101480 92
2005-08-23 06:50:27 51°15.57 2°53.789 18.3 17 16.7 101480 92
2005-08-23 06:50:33 51°15.586 2°53.772 18.4 16 16.7 101490 92
2005-08-23 06:50:36 51°15.596 2°53.761 17.6 12 16.7 101490 92
2005-08-23 06:50:43 51°15.616 2°53.74 18 16 16.6 101470 91
2005-08-23 06:50:48 51°15.63 2°53.726 16.3 15 16.6 101470 91
2005-08-23 06:50:52 51°15.644 2°53.711 18 14 16.6 101490 91
2005-08-23 06:50:57 51°15.658 2°53.697 18.6 15 16.6 101490 91
2005-08-23 06:51:03 51°15.675 2°53.679 18.5 16 16.6 101480 91
2005-08-23 06:51:07 51°15.689 2°53.665 18.3 17 16.6 101480 91
2005-08-23 06:51:11 51°15.701 2°53.652 17.6 18 16.6 101480 92
2005-08-23 06:51:18 51°15.721 2°53.633 18.1 19 16.6 101480 92
2005-08-23 06:51:23 51°15.736 2°53.617 17.1 17 16.6 101490 92
2005-08-23 06:51:27 51°15.748 2°53.605 17.7 19 16.6 101490 92
2005-08-23 06:51:33 51°15.766 2°53.586 17.3 17 16.6 101480 91
2005-08-23 06:51:37 51°15.779 2°53.572 17.4 20 16.6 101480 91
2005-08-23 06:51:43 51°15.796 2°53.555 16.4 20 16.6 101490 91
2005-08-23 06:51:47 51°15.807 2°53.543 15.9 15 16.6 101490 91
2005-08-23 06:51:53 51°15.826 2°53.524 17.1 15 16.6 101480 92
2005-08-23 06:51:57 51°15.84 2°53.51 16.8 15 16.6 101480 92
2005-08-23 06:52:03 51°15.856 2°53.494 17.3 15 16.6 101500 92
2005-08-23 06:52:07 51°15.87 2°53.48 17.3 15 16.6 101500 92
2005-08-23 06:52:12 51°15.885 2°53.464 17.2 19 16.6 101490 92
2005-08-23 06:52:15 51°15.895 2°53.455 17 22 16.6 101490 92
2005-08-23 06:52:23 51°15.917 2°53.432 16.5 22 16.6 101490 91
2005-08-23 06:52:27 51°15.929 2°53.419 16.6 18 16.6 101490 91
2005-08-23 06:52:32 51°15.946 2°53.403 16.4 18 16.6 101490 91
2005-08-23 06:52:38 51°15.962 2°53.385 16.1 17 16.6 101490 91
2005-08-23 06:52:42 51°15.976 2°53.371 16.5 16 16.6 101500 91
2005-08-23 06:52:47 51°15.99 2°53.357 16 21 16.6 101500 91
2005-08-23 06:52:52 51°16.006 2°53.341 14.5 16 16.6 101500 91
2005-08-23 06:52:57 51°16.019 2°53.328 16.5 17 16.6 101500 91
2005-08-23 06:53:03 51°16.037 2°53.31 17 14 16.6 101490 92
2005-08-23 06:53:07 51°16.051 2°53.296 17 15 16.6 101490 92
2005-08-23 06:53:11 51°16.063 2°53.284 16.3 17 16.6 101500 92
2005-08-23 06:53:18 51°16.082 2°53.264 16.1 12 16.6 101500 92
2005-08-23 06:53:23 51°16.098 2°53.248 17.8 16 16.6 101500 92
2005-08-23 06:53:27 51°16.11 2°53.236 17.2 15 16.6 101500 92
2005-08-23 06:53:32 51°16.127 2°53.22 17 15 16.6 101490 92
2005-08-23 06:53:37 51°16.142 2°53.204 16.8 17 16.6 101490 92
2005-08-23 06:53:43 51°16.158 2°53.188 17.5 16 16.6 101500 92
2005-08-23 06:53:47 51°16.171 2°53.175 16.8 17 16.6 101500 92
2005-08-23 06:53:53 51°16.189 2°53.157 16.5 15 16.6 101480 92
2005-08-23 06:53:57 51°16.203 2°53.143 16.8 18 16.6 101480 92
2005-08-23 06:54:03 51°16.22 2°53.127 17.1 15 16.6 101490 92
2005-08-23 06:54:08 51°16.235 2°53.113 17.2 14 16.6 101490 92
2005-08-23 06:54:12 51°16.249 2°53.1 16.9 16 16.6 101490 91
2005-08-23 06:54:17 51°16.265 2°53.085 16.4 14 16.6 101490 91
2005-08-23 06:54:23 51°16.281 2°53.07 17.5 14 16.6 101490 91
2005-08-23 06:54:28 51°16.298 2°53.055 17.6 13 16.6 101490 91
2005-08-23 06:54:33 51°16.313 2°53.041 17.7 16 16.6 101490 91
2005-08-23 06:54:38 51°16.328 2°53.027 16.7 17 16.6 101490 91
2005-08-23 06:54:43 51°16.343 2°53.013 17.2 16 16.6 101480 92
2005-08-23 06:54:47 51°16.356 2°53.002 18 19 16.6 101480 92
2005-08-23 06:54:52 51°16.373 2°52.986 17 21 16.6 101480 92
2005-08-23 06:54:57 51°16.388 2°52.972 16.5 20 16.6 101480 92
2005-08-23 06:55:03 51°16.406 2°52.956 16.6 18 16.7 101480 92
2005-08-23 06:55:08 51°16.421 2°52.941 17 20 16.7 101480 92
2005-08-23 06:55:11 51°16.432 2°52.931 16.3 19 16.7 101490 92
2005-08-23 06:55:17 51°16.45 2°52.914 16.7 19 16.7 101490 92
2005-08-23 06:55:23 51°16.467 2°52.897 17.1 22 16.6 101490 92
2005-08-23 06:55:27 51°16.48 2°52.885 17.6 20 16.6 101490 92
2005-08-23 06:55:33 51°16.498 2°52.868 16.2 22 16.7 101490 92
2005-08-23 06:55:38 51°16.514 2°52.853 16.9 -999 16.7 101490 92
2005-08-23 06:55:43 51°16.529 2°52.838 16.1 20 16.7 101490 92
2005-08-23 06:55:47 51°16.541 2°52.827 15 19 16.7 101490 92
2005-08-23 06:55:51 51°16.554 2°52.815 15.4 16 16.7 101480 91
2005-08-23 06:55:58 51°16.578 2°52.796 15.6 11 16.7 101480 91
2005-08-23 06:56:03 51°16.592 2°52.784 16.4 12 16.7 101490 91
2005-08-23 06:56:08 51°16.61 2°52.77 15.6 13 16.7 101490 91
2005-08-23 06:56:13 51°16.625 2°52.758 15 16 16.7 101500 92
2005-08-23 06:56:16 51°16.636 2°52.749 17.2 13 16.7 101500 92
2005-08-23 06:56:23 51°16.656 2°52.732 16.1 15 16.7 101500 92
2005-08-23 06:56:27 51°16.669 2°52.721 17.5 13 16.7 101500 92
2005-08-23 06:56:33 51°16.689 2°52.704 16.8 12 16.7 101490 92
2005-08-23 06:56:38 51°16.703 2°52.692 16.4 12 16.7 101490 92
2005-08-23 06:56:43 51°16.72 2°52.678 15.9 16 16.7 101500 92
2005-08-23 06:56:47 51°16.732 2°52.667 16.5 20 16.7 101500 92
2005-08-23 06:56:52 51°16.75 2°52.653 15 17 16.7 101490 91
2005-08-23 06:56:57 51°16.765 2°52.64 15.2 18 16.7 101490 91
2005-08-23 06:57:03 51°16.783 2°52.626 17.4 16 16.7 101490 91
2005-08-23 06:57:07 51°16.796 2°52.615 17.4 17 16.7 101490 91
2005-08-23 06:57:12 51°16.814 2°52.603 17.2 14 16.7 101500 92
2005-08-23 06:57:17 51°16.83 2°52.591 15.5 15 16.7 101500 92
2005-08-23 06:57:23 51°16.848 2°52.579 15.8 10 16.7 101500 92
2005-08-23 06:57:27 51°16.863 2°52.569 16.6 11 16.7 101500 92
2005-08-23 06:57:32 51°16.879 2°52.559 16.4 12 16.7 101490 92
2005-08-23 06:57:37 51°16.896 2°52.549 15.8 14 16.7 101490 92
2005-08-23 06:57:43 51°16.915 2°52.537 15.2 12 16.7 101490 92
2005-08-23 06:57:48 51°16.932 2°52.526 14.7 14 16.7 101490 92
2005-08-23 06:57:53 51°16.95 2°52.515 15.4 18 16.7 101480 92
2005-08-23 06:57:58 51°16.965 2°52.505 17 15 16.7 101480 92
2005-08-23 06:58:03 51°16.983 2°52.494 16.9 14 16.7 101490 92
2005-08-23 06:58:07 51°16.997 2°52.485 16.4 13 16.7 101490 92
2005-08-23 06:58:13 51°17.015 2°52.474 15.7 7 16.7 101500 92
2005-08-23 06:58:18 51°17.033 2°52.462 16.1 11 16.7 101500 92
2005-08-23 06:58:23 51°17.047 2°52.453 17.3 11 16.7 101490 92
2005-08-23 06:58:28 51°17.065 2°52.442 18 8 16.7 101490 92
2005-08-23 06:58:32 51°17.079 2°52.433 16.4 12 16.7 101490 91
2005-08-23 06:58:38 51°17.098 2°52.421 17.6 7 16.7 101490 91
2005-08-23 06:58:43 51°17.115 2°52.411 17.8 11 16.7 101500 92
2005-08-23 06:58:48 51°17.131 2°52.401 17.5 10 16.7 101500 92
2005-08-23 06:58:53 51°17.148 2°52.39 17.2 9 16.7 101480 91
2005-08-23 06:58:56 51°17.16 2°52.382 16.9 8 16.7 101480 91
2005-08-23 06:59:02 51°17.18 2°52.37 16.9 7 16.7 101490 91
2005-08-23 06:59:07 51°17.197 2°52.362 16.8 7 16.7 101490 91
2005-08-23 06:59:12 51°17.214 2°52.357 17.4 -999 16.7 101490 91
2005-08-23 06:59:18 51°17.234 2°52.352 17.9 2 16.7 101490 91
2005-08-23 06:59:23 51°17.251 2°52.349 16.9 7 16.7 101490 91
2005-08-23 06:59:27 51°17.264 2°52.347 17.4 3 16.7 101490 91
2005-08-23 06:59:31 51°17.278 2°52.346 16.7 4 16.7 101490 91
2005-08-23 06:59:36 51°17.298 2°52.344 16 1 16.7 101490 91
2005-08-23 06:59:43 51°17.32 2°52.343 17.4 2 16.7 101490 91
2005-08-23 06:59:47 51°17.336 2°52.342 16 2 16.7 101490 91
2005-08-23 06:59:51 51°17.35 2°52.341 16.9 2 16.7 101500 91
2005-08-23 06:59:58 51°17.374 2°52.339 16.1 358 16.7 101500 91
2005-08-23 07:00:03 51°17.389 2°52.339 17.1 355 16.7 101490 91
2005-08-23 07:00:07 51°17.405 2°52.338 16.2 355 16.7 101490 91
2005-08-23 07:00:11 51°17.419 2°52.337 17.9 -999 16.7 101480 91
2005-08-23 07:00:18 51°17.443 2°52.335 16.5 359 16.7 101480 91
2005-08-23 07:00:23 51°17.459 2°52.333 16.9 354 16.7 101500 91
2005-08-23 07:00:28 51°17.476 2°52.333 15.3 354 16.7 101500 91
2005-08-23 07:00:32 51°17.492 2°52.332 17.1 354 16.7 101500 91
2005-08-23 07:00:38 51°17.511 2°52.331 16.8 353 16.7 101500 91
2005-08-23 07:00:43 51°17.529 2°52.33 17.2 355 16.7 101500 91
2005-08-23 07:00:48 51°17.545 2°52.33 17.1 356 16.7 101500 91
2005-08-23 07:00:53 51°17.563 2°52.33 16.7 353 16.7 101490 91
2005-08-23 07:00:56 51°17.574 2°52.33 17.1 350 16.7 101490 91
2005-08-23 07:01:02 51°17.595 2°52.33 17.1 353 16.7 101490 91
2005-08-23 07:01:07 51°17.612 2°52.33 17.2 349 16.7 101490 91
2005-08-23 07:01:13 51°17.631 2°52.33 17.6 354 16.7 101500 90
2005-08-23 07:01:18 51°17.65 2°52.332 16.7 349 16.7 101500 90
2005-08-23 07:01:22 51°17.664 2°52.332 15.5 348 16.7 101480 90
2005-08-23 07:01:27 51°17.681 2°52.334 17.4 352 16.7 101480 90
2005-08-23 07:01:31 51°17.694 2°52.334 16.8 353 16.7 101490 90
2005-08-23 07:01:38 51°17.718 2°52.338 16.3 349 16.7 101490 90
2005-08-23 07:01:43 51°17.734 2°52.341 16.5 347 16.7 101490 90
2005-08-23 07:01:47 51°17.747 2°52.344 15.4 344 16.7 101490 90
2005-08-23 07:01:53 51°17.767 2°52.349 16.8 348 16.7 101490 90
2005-08-23 07:01:58 51°17.783 2°52.353 15.3 347 16.7 101490 90
2005-08-23 07:02:03 51°17.8 2°52.359 17.7 349 16.7 101500 91
2005-08-23 07:02:08 51°17.817 2°52.364 16.5 346 16.7 101500 91
2005-08-23 07:02:12 51°17.83 2°52.369 16.9 343 16.7 101480 91
2005-08-23 07:02:16 51°17.844 2°52.374 16.7 346 16.7 101480 91
2005-08-23 07:02:23 51°17.866 2°52.383 15.6 345 16.7 101490 91
2005-08-23 07:02:27 51°17.881 2°52.39 15 349 16.7 101490 91
2005-08-23 07:02:32 51°17.897 2°52.397 16.6 346 16.7 101480 91
2005-08-23 07:02:37 51°17.913 2°52.406 17 347 16.7 101480 91
2005-08-23 07:02:43 51°17.931 2°52.414 16.1 349 16.7 101470 91
2005-08-23 07:02:48 51°17.947 2°52.424 15.6 343 16.7 101470 91
2005-08-23 07:02:53 51°17.962 2°52.435 15.2 344 16.8 101500 91
2005-08-23 07:02:58 51°17.979 2°52.447 17.1 343 16.8 101500 91
2005-08-23 07:03:03 51°17.993 2°52.457 16.3 340 16.7 101490 91
2005-08-23 07:03:07 51°18.004 2°52.466 16.5 339 16.7 101490 91
2005-08-23 07:03:12 51°18.021 2°52.48 16.7 335 16.7 101500 91
2005-08-23 07:03:17 51°18.036 2°52.493 15.7 340 16.7 101500 91
2005-08-23 07:03:23 51°18.052 2°52.507 16.3 337 16.7 101490 91
2005-08-23 07:03:28 51°18.067 2°52.521 15.7 334 16.7 101490 91
2005-08-23 07:03:32 51°18.077 2°52.533 15.5 334 16.7 101500 91
2005-08-23 07:03:37 51°18.092 2°52.55 16.2 340 16.7 101500 91
2005-08-23 07:03:43 51°18.107 2°52.567 16.4 329 16.8 101490 91
2005-08-23 07:03:48 51°18.121 2°52.583 15.9 333 16.8 101490 91
2005-08-23 07:03:52 51°18.132 2°52.597 16.1 334 16.8 101480 91
2005-08-23 07:03:58 51°18.148 2°52.617 17.5 334 16.8 101480 91
2005-08-23 07:04:02 51°18.159 2°52.63 15.5 325 16.8 101490 91
2005-08-23 07:04:07 51°18.171 2°52.646 15.9 326 16.8 101490 91
2005-08-23 07:04:12 51°18.184 2°52.663 16.3 327 16.8 101480 91
2005-08-23 07:04:18 51°18.198 2°52.682 15.5 325 16.8 101480 91
2005-08-23 07:04:23 51°18.21 2°52.7 14.7 326 16.8 101490 91
2005-08-23 07:04:28 51°18.221 2°52.719 15.1 323 16.8 101490 91
2005-08-23 07:04:33 51°18.232 2°52.739 16.5 322 16.8 101480 91
2005-08-23 07:04:38 51°18.243 2°52.762 15.9 318 16.8 101480 91
2005-08-23 07:04:43 51°18.251 2°52.782 16.9 42 16.8 101490 91
2005-08-23 07:04:48 51°18.261 2°52.803 15.2 41 16.8 101490 91
2005-08-23 07:04:52 51°18.268 2°52.823 16 231 16.8 101490 91
2005-08-23 07:04:57 51°18.278 2°52.844 15 319 16.8 101490 91
2005-08-23 07:05:03 51°18.288 2°52.867 15 321 16.8 101500 91
2005-08-23 07:05:08 51°18.299 2°52.889 15.9 318 16.8 101500 91
2005-08-23 07:05:13 51°18.309 2°52.911 16.7 321 16.7 101480 91
2005-08-23 07:05:18 51°18.318 2°52.934 16.3 321 16.7 101480 91
2005-08-23 07:05:23 51°18.327 2°52.955 14.9 317 16.8 101490 91
2005-08-23 07:05:27 51°18.333 2°52.976 14.2 319 16.8 101490 91
2005-08-23 07:05:33 51°18.342 2°53.002 14.5 317 16.7 101490 91
2005-08-23 07:05:38 51°18.348 2°53.03 13.7 316 16.7 101490 91
2005-08-23 07:05:43 51°18.355 2°53.051 15.9 311 16.7 101460 91
2005-08-23 07:05:48 51°18.358 2°53.079 14.5 315 16.7 101460 91
2005-08-23 07:05:52 51°18.366 2°53.099 15.1 314 16.7 101480 91
2005-08-23 07:05:58 51°18.371 2°53.127 14.3 43 16.7 101480 91
2005-08-23 07:06:03 51°18.378 2°53.151 16 316 16.7 101480 91
2005-08-23 07:06:07 51°18.383 2°53.175 14.5 42 16.7 101480 91
2005-08-23 07:06:11 51°18.387 2°53.195 14.4 313 16.7 101480 91
2005-08-23 07:06:18 51°18.395 2°53.229 14.1 317 16.7 101480 91
2005-08-23 07:06:23 51°18.402 2°53.251 14.2 313 16.7 101480 91
2005-08-23 07:06:27 51°18.406 2°53.274 14.8 315 16.7 101480 91
2005-08-23 07:06:33 51°18.414 2°53.301 15.4 313 16.7 101480 91
2005-08-23 07:06:38 51°18.42 2°53.328 13 226 16.7 101480 91
2005-08-23 07:06:43 51°18.425 2°53.351 14.8 42 16.7 101500 91
2005-08-23 07:06:47 51°18.432 2°53.373 15.3 43 16.7 101500 91
2005-08-23 07:06:51 51°18.437 2°53.393 15.2 229 16.7 101490 91
2005-08-23 07:06:58 51°18.445 2°53.424 13.4 315 16.7 101490 91
2005-08-23 07:07:02 51°18.452 2°53.446 14.1 315 16.7 101480 91
2005-08-23 07:07:07 51°18.458 2°53.471 13.8 320 16.7 101480 91
2005-08-23 07:07:13 51°18.467 2°53.498 15 317 16.7 101490 91
2005-08-23 07:07:18 51°18.474 2°53.522 15.4 227 16.7 101490 91
2005-08-23 07:07:23 51°18.481 2°53.545 15.1 41 16.6 101490 91
2005-08-23 07:07:27 51°18.486 2°53.565 13 325 16.6 101490 91
2005-08-23 07:07:33 51°18.496 2°53.594 15.5 317 16.7 101480 91
2005-08-23 07:07:38 51°18.504 2°53.619 15.4 -999 16.7 101480 91
2005-08-23 07:07:42 51°18.509 2°53.639 14.1 317 16.7 101480 91
2005-08-23 07:07:47 51°18.517 2°53.663 14.3 40 16.7 101480 91
2005-08-23 07:07:51 51°18.522 2°53.682 14.9 313 16.7 101490 92
2005-08-23 07:07:58 51°18.532 2°53.712 13.6 40 16.7 101490 92
2005-08-23 07:08:03 51°18.538 2°53.737 16.4 315 16.7 101500 92
2005-08-23 07:08:08 51°18.546 2°53.761 15.7 229 16.7 101500 92
2005-08-23 07:08:13 51°18.552 2°53.786 15.1 313 16.7 101480 91
2005-08-23 07:08:17 51°18.56 2°53.806 15.4 321 16.7 101480 91
2005-08-23 07:08:23 51°18.567 2°53.832 16.1 317 16.7 101480 91
2005-08-23 07:08:28 51°18.575 2°53.856 15.7 41 16.7 101480 91
2005-08-23 07:08:32 51°18.581 2°53.878 14.3 317 16.6 101480 91
2005-08-23 07:08:38 51°18.59 2°53.906 14 316 16.6 101480 91
2005-08-23 07:08:43 51°18.597 2°53.927 14.4 317 16.7 101480 91
2005-08-23 07:08:47 51°18.604 2°53.948 15.1 320 16.7 101480 91
2005-08-23 07:08:52 51°18.611 2°53.973 16.1 230 16.6 101480 91
2005-08-23 07:08:58 51°18.619 2°54.002 15.3 320 16.6 101480 91
2005-08-23 07:09:03 51°18.626 2°54.022 14.9 316 16.6 101480 91
2005-08-23 07:09:08 51°18.634 2°54.047 15.1 228 16.6 101480 91
2005-08-23 07:09:12 51°18.639 2°54.066 12.6 317 16.6 101490 91
2005-08-23 07:09:18 51°18.648 2°54.094 14 320 16.6 101490 91
2005-08-23 07:09:23 51°18.657 2°54.118 14.4 322 16.6 101480 91
2005-08-23 07:09:28 51°18.663 2°54.143 13.3 324 16.6 101480 91
2005-08-23 07:09:32 51°18.67 2°54.161 13.1 324 16.7 101480 91
2005-08-23 07:09:38 51°18.679 2°54.19 15.9 317 16.7 101480 91
2005-08-23 07:09:43 51°18.687 2°54.213 14.1 326 16.7 101490 92
2005-08-23 07:09:48 51°18.694 2°54.237 16.3 316 16.7 101490 92
2005-08-23 07:09:53 51°18.701 2°54.261 14.8 319 16.7 101490 91
2005-08-23 07:09:56 51°18.707 2°54.277 14.1 316 16.7 101490 91
2005-08-23 07:10:02 51°18.716 2°54.306 14.1 39 16.7 101470 91
2005-08-23 07:10:07 51°18.723 2°54.33 12.9 323 16.7 101470 91
2005-08-23 07:10:13 51°18.731 2°54.357 14.8 323 16.6 101480 91
2005-08-23 07:10:18 51°18.737 2°54.381 15.5 43 16.6 101480 91
2005-08-23 07:10:23 51°18.744 2°54.406 13.7 316 16.7 101490 91
2005-08-23 07:10:27 51°18.75 2°54.424 15.1 317 16.7 101490 91
2005-08-23 07:10:31 51°18.756 2°54.444 15.4 43 16.7 101480 91
2005-08-23 07:10:36 51°18.764 2°54.471 14.9 317 16.7 101480 91
2005-08-23 07:10:43 51°18.771 2°54.504 13.6 316 16.7 101470 91
2005-08-23 07:10:47 51°18.779 2°54.524 13.5 319 16.7 101470 91
2005-08-23 07:10:53 51°18.786 2°54.552 13.3 228 16.7 101480 91
2005-08-23 07:10:58 51°18.794 2°54.575 14.8 229 16.7 101480 91
2005-08-23 07:11:03 51°18.799 2°54.599 14.9 42 16.7 101490 91
2005-08-23 07:11:07 51°18.807 2°54.621 13.1 325 16.7 101490 91
2005-08-23 07:11:11 51°18.812 2°54.637 15.8 41 16.7 101490 91
2005-08-23 07:11:18 51°18.822 2°54.674 14.8 229 16.7 101490 91
2005-08-23 07:11:23 51°18.828 2°54.695 14.2 317 16.7 101490 91
2005-08-23 07:11:28 51°18.836 2°54.72 14.1 226 16.7 101490 91
2005-08-23 07:11:33 51°18.843 2°54.744 14.9 229 16.7 101490 91
2005-08-23 07:11:38 51°18.85 2°54.771 14.5 316 16.7 101490 91
2005-08-23 07:11:43 51°18.856 2°54.792 14.7 227 16.6 101480 91
2005-08-23 07:11:48 51°18.863 2°54.817 13.9 317 16.6 101480 91
2005-08-23 07:11:51 51°18.868 2°54.834 13.6 44 16.6 101490 91
2005-08-23 07:11:58 51°18.878 2°54.868 13.5 321 16.6 101490 91
2005-08-23 07:12:03 51°18.884 2°54.89 15.9 320 16.7 101490 91
2005-08-23 07:12:08 51°18.891 2°54.915 15.5 319 16.7 101490 91
2005-08-23 07:12:13 51°18.897 2°54.941 15.6 316 16.7 101490 91
2005-08-23 07:12:18 51°18.906 2°54.965 16.3 43 16.7 101490 91
2005-08-23 07:12:23 51°18.912 2°54.988 15.1 227 16.7 101500 91
2005-08-23 07:12:27 51°18.918 2°55.009 14 319 16.7 101500 91
2005-08-23 07:12:33 51°18.927 2°55.037 15.3 227 16.7 101490 91
2005-08-23 07:12:38 51°18.932 2°55.061 15.3 43 16.7 101490 91
2005-08-23 07:12:43 51°18.94 2°55.084 15.2 314 16.7 101490 91
2005-08-23 07:12:48 51°18.947 2°55.109 14.3 314 16.7 101490 91
2005-08-23 07:12:51 51°18.952 2°55.126 12 322 16.6 101490 91
2005-08-23 07:12:58 51°18.963 2°55.159 14 321 16.6 101490 91
2005-08-23 07:13:03 51°18.968 2°55.182 14.8 317 16.6 101480 91
2005-08-23 07:13:07 51°18.975 2°55.203 13.8 317 16.6 101480 91
2005-08-23 07:13:13 51°18.984 2°55.231 13.3 316 16.7 101490 91
2005-08-23 07:13:18 51°18.992 2°55.256 15 226 16.7 101490 91
2005-08-23 07:13:23 51°18.998 2°55.278 15 229 16.7 101490 91
2005-08-23 07:13:28 51°19.006 2°55.303 15.3 317 16.7 101490 91
2005-08-23 07:13:31 51°19.01 2°55.32 13.6 42 16.7 101490 91
2005-08-23 07:13:38 51°19.021 2°55.353 14.1 45 16.7 101490 91
2005-08-23 07:13:43 51°19.028 2°55.375 15.4 43 16.7 101480 91
2005-08-23 07:13:48 51°19.035 2°55.399 14.2 42 16.7 101480 91
2005-08-23 07:13:52 51°19.043 2°55.42 14.6 44 16.7 101500 91
2005-08-23 07:13:57 51°19.05 2°55.444 13.9 314 16.7 101500 91
2005-08-23 07:14:03 51°19.058 2°55.47 13.7 229 16.6 101490 91
2005-08-23 07:14:08 51°19.065 2°55.495 13 42 16.6 101490 91
2005-08-23 07:14:13 51°19.073 2°55.519 13.4 317 16.7 101490 91
2005-08-23 07:14:18 51°19.081 2°55.545 14.5 314 16.7 101490 91
2005-08-23 07:14:23 51°19.087 2°55.567 15.2 313 16.7 101490 91
2005-08-23 07:14:27 51°19.094 2°55.589 13.2 315 16.7 101490 91
2005-08-23 07:14:31 51°19.1 2°55.609 14 229 16.7 101490 91
2005-08-23 07:14:38 51°19.108 2°55.64 14.7 313 16.7 101490 91
2005-08-23 07:14:43 51°19.116 2°55.665 15 313 16.6 101490 91
2005-08-23 07:14:48 51°19.123 2°55.69 14.9 41 16.6 101490 91
2005-08-23 07:14:53 51°19.13 2°55.714 16.6 314 16.7 101490 91
2005-08-23 07:14:56 51°19.136 2°55.73 14.4 315 16.7 101490 91
2005-08-23 07:15:02 51°19.143 2°55.759 15.2 313 16.7 101490 91
2005-08-23 07:15:07 51°19.151 2°55.784 13.6 323 16.7 101490 91
2005-08-23 07:15:13 51°19.159 2°55.811 15.7 314 16.7 101500 91
2005-08-23 07:15:18 51°19.165 2°55.839 13.3 316 16.7 101500 91
2005-08-23 07:15:23 51°19.173 2°55.86 12.5 315 16.7 101490 91
2005-08-23 07:15:27 51°19.178 2°55.883 13.6 230 16.7 101490 91
2005-08-23 07:15:31 51°19.185 2°55.901 12.5 315 16.7 101500 91
2005-08-23 07:15:38 51°19.194 2°55.936 14 316 16.7 101500 91
2005-08-23 07:15:43 51°19.201 2°55.957 13 319 16.7 101490 91
2005-08-23 07:15:48 51°19.208 2°55.983 14.3 228 16.7 101490 91
2005-08-23 07:15:52 51°19.214 2°56.001 11.9 315 16.7 101490 91
2005-08-23 07:15:58 51°19.223 2°56.034 12.8 40 16.7 101490 91
2005-08-23 07:16:03 51°19.23 2°56.058 13.7 317 16.7 101500 91
2005-08-23 07:16:08 51°19.236 2°56.08 13.9 317 16.7 101500 91
2005-08-23 07:16:12 51°19.242 2°56.103 13.7 43 16.7 101490 91
2005-08-23 07:16:18 51°19.25 2°56.13 12 37 16.7 101490 91
2005-08-23 07:16:22 51°19.255 2°56.152 14.8 227 16.7 101500 91
2005-08-23 07:16:27 51°19.261 2°56.177 13.7 321 16.7 101500 91
2005-08-23 07:16:33 51°19.269 2°56.205 13.7 317 16.7 101490 91
2005-08-23 07:16:38 51°19.276 2°56.232 13 317 16.7 101490 91
2005-08-23 07:16:42 51°19.283 2°56.25 14.9 314 16.8 101500 91
2005-08-23 07:16:47 51°19.289 2°56.276 15.5 230 16.8 101500 91
2005-08-23 07:16:52 51°19.296 2°56.299 13.6 41 16.7 101500 91
2005-08-23 07:16:55 51°19.3 2°56.314 13.1 319 16.7 101500 91
2005-08-23 07:17:03 51°19.311 2°56.351 13.9 321 16.7 101500 91
2005-08-23 07:17:07 51°19.317 2°56.37 14.5 316 16.7 101500 91
2005-08-23 07:17:11 51°19.322 2°56.389 13.7 315 16.7 101490 91
2005-08-23 07:17:18 51°19.331 2°56.425 14.7 317 16.7 101490 91
2005-08-23 07:17:23 51°19.338 2°56.449 14.4 316 16.7 101490 91
2005-08-23 07:17:27 51°19.343 2°56.472 17.3 41 16.7 101490 91
2005-08-23 07:17:32 51°19.349 2°56.495 15.8 41 16.7 101500 91
2005-08-23 07:17:38 51°19.358 2°56.526 16.2 228 16.7 101500 91
2005-08-23 07:17:43 51°19.364 2°56.547 16.3 40 16.8 101490 91
2005-08-23 07:17:47 51°19.37 2°56.57 16.4 41 16.8 101490 91
2005-08-23 07:17:52 51°19.377 2°56.594 14.8 40 16.7 101490 91
2005-08-23 07:17:58 51°19.385 2°56.624 14.5 319 16.7 101490 91
2005-08-23 07:18:03 51°19.392 2°56.645 15.3 314 16.7 101480 90
2005-08-23 07:18:08 51°19.398 2°56.671 14 42 16.7 101480 90
2005-08-23 07:18:12 51°19.404 2°56.69 14.9 43 16.7 101490 90
2005-08-23 07:18:17 51°19.411 2°56.716 15.9 313 16.7 101490 90
2005-08-23 07:18:23 51°19.419 2°56.743 14.6 227 16.7 101490 90
2005-08-23 07:18:27 51°19.425 2°56.765 13.9 321 16.7 101490 90
2005-08-23 07:18:33 51°19.432 2°56.793 14.8 42 16.7 101490 90
2005-08-23 07:18:36 51°19.438 2°56.806 14.8 317 16.7 101490 90
2005-08-23 07:18:43 51°19.446 2°56.84 14 314 16.7 101480 90
2005-08-23 07:18:47 51°19.452 2°56.863 13.5 317 16.7 101480 90
2005-08-23 07:18:53 51°19.459 2°56.89 15.6 309 16.7 101490 90
2005-08-23 07:18:58 51°19.467 2°56.915 12.3 325 16.7 101490 90
2005-08-23 07:19:03 51°19.474 2°56.938 12.8 318 16.7 101500 90
2005-08-23 07:19:07 51°19.479 2°56.961 15.7 313 16.7 101500 90
2005-08-23 07:19:12 51°19.486 2°56.986 12.8 318 16.7 101500 90
2005-08-23 07:19:15 51°19.489 2°57.001 13.7 318 16.7 101500 90
2005-08-23 07:19:23 51°19.5 2°57.037 15.1 318 16.7 101510 90
2005-08-23 07:19:27 51°19.504 2°57.058 15.8 228 16.7 101510 90
2005-08-23 07:19:33 51°19.513 2°57.087 14 43 16.7 101490 90
2005-08-23 07:19:38 51°19.52 2°57.112 14.6 317 16.7 101490 90
2005-08-23 07:19:43 51°19.527 2°57.136 14.3 319 16.7 101480 91
2005-08-23 07:19:48 51°19.533 2°57.162 15.9 318 16.7 101480 91
2005-08-23 07:19:52 51°19.541 2°57.183 15 317 16.7 101470 90
2005-08-23 07:19:58 51°19.549 2°57.212 15.5 314 16.7 101470 90
2005-08-23 07:20:03 51°19.555 2°57.234 13.2 317 16.7 101490 90
2005-08-23 07:20:08 51°19.562 2°57.26 14.4 40 16.7 101490 90
2005-08-23 07:20:12 51°19.568 2°57.278 15.3 319 16.7 101500 91
2005-08-23 07:20:18 51°19.576 2°57.308 15 227 16.7 101500 91
2005-08-23 07:20:23 51°19.583 2°57.332 14.2 228 16.7 101480 90
2005-08-23 07:20:27 51°19.588 2°57.355 14.1 313 16.7 101480 90
2005-08-23 07:20:33 51°19.597 2°57.382 13.8 313 16.7 101480 91
2005-08-23 07:20:38 51°19.603 2°57.407 14.8 323 16.7 101480 91
2005-08-23 07:20:43 51°19.611 2°57.433 13.6 316 16.7 101470 90
2005-08-23 07:20:48 51°19.617 2°57.459 14 42 16.7 101470 90
2005-08-23 07:20:53 51°19.623 2°57.481 12.7 317 16.7 101490 90
2005-08-23 07:20:55 51°19.626 2°57.494 15.1 313 16.7 101490 90
2005-08-23 07:21:03 51°19.636 2°57.531 14.8 317 16.7 101490 91
2005-08-23 07:21:07 51°19.643 2°57.552 15.3 229 16.7 101490 91
2005-08-23 07:21:12 51°19.649 2°57.577 14.4 318 16.7 101490 91
2005-08-23 07:21:18 51°19.657 2°57.607 16.5 319 16.7 101490 91
2005-08-23 07:21:23 51°19.662 2°57.63 14.8 318 16.7 101480 91
2005-08-23 07:21:28 51°19.669 2°57.654 13.8 318 16.7 101480 91
2005-08-23 07:21:33 51°19.676 2°57.679 15.6 40 16.8 101480 91
2005-08-23 07:21:38 51°19.683 2°57.706 14.3 41 16.8 101480 91
2005-08-23 07:21:43 51°19.689 2°57.728 15.6 227 16.7 101480 91
2005-08-23 07:21:47 51°19.695 2°57.751 13.6 317 16.7 101480 91
2005-08-23 07:21:53 51°19.704 2°57.78 13.5 315 16.7 101490 90
2005-08-23 07:21:58 51°19.708 2°57.803 15.9 314 16.7 101490 90
2005-08-23 07:22:03 51°19.716 2°57.826 14.6 230 16.7 101490 90
2005-08-23 07:22:08 51°19.722 2°57.852 14.3 228 16.7 101490 90
2005-08-23 07:22:12 51°19.727 2°57.872 14.8 313 16.8 101490 91
2005-08-23 07:22:17 51°19.735 2°57.898 13.3 44 16.8 101490 91
2005-08-23 07:22:23 51°19.741 2°57.926 15.2 312 16.8 101500 91
2005-08-23 07:22:27 51°19.748 2°57.948 12.5 316 16.8 101500 91
2005-08-23 07:22:33 51°19.755 2°57.976 16.5 312 16.7 101490 90
2005-08-23 07:22:38 51°19.762 2°58.003 13.4 319 16.7 101490 90
2005-08-23 07:22:43 51°19.768 2°58.025 15.1 311 16.7 101500 90
2005-08-23 07:22:47 51°19.774 2°58.044 15.9 313 16.7 101500 90
2005-08-23 07:22:52 51°19.779 2°58.069 14.8 315 16.8 101510 91
2005-08-23 07:22:57 51°19.788 2°58.095 13.9 228 16.8 101510 91
2005-08-23 07:23:03 51°19.794 2°58.123 13.4 319 16.8 101510 91
2005-08-23 07:23:07 51°19.801 2°58.145 15 313 16.8 101510 91
2005-08-23 07:23:13 51°19.807 2°58.173 13.7 316 16.8 101490 91
2005-08-23 07:23:17 51°19.814 2°58.194 16 228 16.8 101490 91
2005-08-23 07:23:23 51°19.82 2°58.221 13.1 312 16.8 101490 91
2005-08-23 07:23:27 51°19.827 2°58.243 12.6 41 16.8 101490 91
2005-08-23 07:23:33 51°19.833 2°58.27 13.7 321 16.8 101500 91
2005-08-23 07:23:38 51°19.841 2°58.295 14 317 16.8 101500 91
2005-08-23 07:23:43 51°19.847 2°58.318 14.6 322 16.8 101490 91
2005-08-23 07:23:47 51°19.852 2°58.339 14.2 320 16.8 101490 91
2005-08-23 07:23:51 51°19.858 2°58.362 14.2 318 16.8 101500 91
2005-08-23 07:23:58 51°19.866 2°58.393 13.1 321 16.8 101500 91
2005-08-23 07:24:03 51°19.874 2°58.417 13 316 16.8 101500 91
2005-08-23 07:24:08 51°19.88 2°58.443 14.2 42 16.8 101500 91
2005-08-23 07:24:11 51°19.883 2°58.46 14 317 16.8 101490 91
2005-08-23 07:24:18 51°19.893 2°58.494 13.2 323 16.8 101490 91
2005-08-23 07:24:23 51°19.898 2°58.516 15.1 319 16.8 101500 91
2005-08-23 07:24:27 51°19.904 2°58.539 13.5 317 16.8 101500 91
2005-08-23 07:24:32 51°19.911 2°58.56 13.7 320 16.8 101490 91
2005-08-23 07:24:38 51°19.919 2°58.592 14.5 315 16.8 101490 91
2005-08-23 07:24:42 51°19.924 2°58.611 13 316 16.8 101500 91
2005-08-23 07:24:48 51°19.932 2°58.638 13.5 322 16.8 101500 91
2005-08-23 07:24:52 51°19.937 2°58.658 12.4 41 16.8 101500 91
2005-08-23 07:24:58 51°19.946 2°58.69 14.5 318 16.8 101500 91
2005-08-23 07:25:03 51°19.952 2°58.714 13.7 320 16.8 101500 90
2005-08-23 07:25:08 51°19.959 2°58.736 14.3 226 16.8 101500 90
2005-08-23 07:25:13 51°19.964 2°58.761 13.7 43 16.8 101510 91
2005-08-23 07:25:18 51°19.973 2°58.784 13.6 227 16.8 101510 91
2005-08-23 07:25:22 51°19.978 2°58.806 12.5 313 16.8 101500 91
2005-08-23 07:25:27 51°19.984 2°58.83 13.7 228 16.8 101500 91
2005-08-23 07:25:33 51°19.992 2°58.857 13.3 313 16.8 101490 91
2005-08-23 07:25:38 51°19.997 2°58.882 14.9 315 16.8 101490 91
2005-08-23 07:25:43 51°20.005 2°58.906 13.5 228 16.8 101490 91
2005-08-23 07:25:47 51°20.01 2°58.925 13.4 314 16.8 101490 91
2005-08-23 07:25:51 51°20.014 2°58.945 12.7 315 16.8 101500 91
2005-08-23 07:25:58 51°20.024 2°58.981 12.1 316 16.8 101500 91
2005-08-23 07:26:02 51°20.029 2°59.002 13.4 317 16.8 101500 91
2005-08-23 07:26:07 51°20.037 2°59.025 13.3 229 16.8 101500 91
2005-08-23 07:26:13 51°20.043 2°59.052 12.4 319 16.8 101500 91
2005-08-23 07:26:18 51°20.049 2°59.079 13.6 316 16.8 101500 91
2005-08-23 07:26:23 51°20.056 2°59.1 14.9 313 16.8 101510 91
2005-08-23 07:26:27 51°20.061 2°59.123 14.1 42 16.8 101510 91
2005-08-23 07:26:33 51°20.069 2°59.149 14.4 227 16.8 101500 91
2005-08-23 07:26:38 51°20.075 2°59.176 13.4 314 16.8 101500 91
2005-08-23 07:26:43 51°20.081 2°59.198 13.3 309 16.8 101500 91
2005-08-23 07:26:48 51°20.088 2°59.222 12.7 312 16.8 101500 91
2005-08-23 07:26:52 51°20.093 2°59.244 13.9 311 16.8 101510 91
2005-08-23 07:26:58 51°20.101 2°59.273 12.2 232 16.8 101510 91
2005-08-23 07:27:03 51°20.106 2°59.296 13.5 43 16.8 101500 91
2005-08-23 07:27:08 51°20.113 2°59.319 12.9 319 16.8 101500 91
2005-08-23 07:27:13 51°20.119 2°59.345 15.5 230 16.8 101500 91
2005-08-23 07:27:18 51°20.126 2°59.37 13.1 320 16.8 101500 91
2005-08-23 07:27:23 51°20.132 2°59.392 13.6 320 16.8 101500 91
2005-08-23 07:27:28 51°20.138 2°59.417 14.8 313 16.8 101500 91
2005-08-23 07:27:32 51°20.144 2°59.438 12.5 313 16.8 101500 91
2005-08-23 07:27:38 51°20.151 2°59.465 14.3 308 16.8 101500 91
2005-08-23 07:27:43 51°20.156 2°59.491 14.2 313 16.9 101500 91
2005-08-23 07:27:48 51°20.164 2°59.514 14.4 302 16.9 101500 91
2005-08-23 07:27:53 51°20.169 2°59.54 12.9 314 16.8 101490 91
2005-08-23 07:27:58 51°20.177 2°59.562 15.5 304 16.8 101490 91
2005-08-23 07:28:02 51°20.181 2°59.584 12.7 315 16.8 101490 91
2005-08-23 07:28:08 51°20.189 2°59.609 12.3 314 16.8 101490 91
2005-08-23 07:28:13 51°20.194 2°59.635 13.2 43 16.8 101500 91
2005-08-23 07:28:18 51°20.201 2°59.658 13.8 317 16.8 101500 91
2005-08-23 07:28:22 51°20.207 2°59.679 14.3 313 16.8 101490 91
2005-08-23 07:28:28 51°20.211 2°59.708 15 311 16.8 101490 91
2005-08-23 07:28:33 51°20.218 2°59.731 14.8 313 16.8 101500 91
2005-08-23 07:28:38 51°20.224 2°59.758 16.2 314 16.8 101500 91
2005-08-23 07:28:43 51°20.232 2°59.778 13.3 314 16.8 101500 91
2005-08-23 07:28:47 51°20.235 2°59.799 13.7 43 16.8 101500 91
2005-08-23 07:28:53 51°20.245 2°59.826 14.3 228 16.8 101490 91
2005-08-23 07:28:58 51°20.251 2°59.852 15.3 309 16.8 101490 91
2005-08-23 07:29:03 51°20.257 2°59.874 13.2 230 16.8 101490 91
2005-08-23 07:29:07 51°20.262 2°59.895 14 313 16.8 101490 91
2005-08-23 07:29:12 51°20.268 2°59.919 14 42 16.8 101500 91
2005-08-23 07:29:18 51°20.275 2°59.949 15.8 44 16.8 101500 91
2005-08-23 07:29:23 51°20.281 2°59.97 14.8 315 16.8 101490 91
2005-08-23 07:29:28 51°20.287 2°59.995 14.5 314 16.8 101490 91
2005-08-23 07:29:32 51°20.294 3°0.015 12.6 320 16.7 101500 91
2005-08-23 07:29:38 51°20.299 3°0.042 14.3 -999 16.7 101500 91
2005-08-23 07:29:43 51°20.306 3°0.066 12.4 228 16.7 101500 91
2005-08-23 07:29:48 51°20.314 3°0.09 14.9 310 16.7 101500 91
2005-08-23 07:29:52 51°20.318 3°0.109 14.4 230 16.8 101500 91
2005-08-23 07:29:58 51°20.326 3°0.138 13.9 314 16.8 101500 91
2005-08-23 07:30:03 51°20.333 3°0.16 11.8 226 16.8 101500 91
2005-08-23 07:30:07 51°20.337 3°0.182 14.6 313 16.8 101500 91
2005-08-23 07:30:13 51°20.347 3°0.208 12.9 308 16.8 101490 91
2005-08-23 07:30:18 51°20.352 3°0.232 12 312 16.8 101490 91
2005-08-23 07:30:23 51°20.359 3°0.254 13.8 228 16.8 101500 91
2005-08-23 07:30:28 51°20.364 3°0.28 13.1 313 16.8 101500 91
2005-08-23 07:30:32 51°20.371 3°0.299 14.2 314 16.8 101500 91
2005-08-23 07:30:35 51°20.374 3°0.314 14.1 309 16.8 101500 91
2005-08-23 07:30:42 51°20.382 3°0.347 12.8 314 16.8 101500 91
2005-08-23 07:30:48 51°20.389 3°0.373 13 306 16.8 101500 91
2005-08-23 07:30:52 51°20.395 3°0.394 12.2 38 16.7 101510 91
2005-08-23 07:30:58 51°20.402 3°0.42 12.8 41 16.7 101510 91
2005-08-23 07:31:03 51°20.407 3°0.444 13.3 325 16.7 101500 91
2005-08-23 07:31:07 51°20.414 3°0.465 13.8 313 16.7 101500 91
2005-08-23 07:31:12 51°20.419 3°0.489 12.9 324 16.8 101510 91
2005-08-23 07:31:17 51°20.427 3°0.512 11.6 317 16.8 101510 91
2005-08-23 07:31:23 51°20.432 3°0.539 14.2 316 16.8 101500 91
2005-08-23 07:31:27 51°20.438 3°0.557 14.7 314 16.8 101500 91
2005-08-23 07:31:32 51°20.445 3°0.582 14.2 315 16.8 101500 91
2005-08-23 07:31:38 51°20.452 3°0.611 15 313 16.8 101500 91
2005-08-23 07:31:43 51°20.457 3°0.632 13.1 313 16.8 101500 91
2005-08-23 07:31:47 51°20.463 3°0.654 14 42 16.8 101500 91
2005-08-23 07:31:53 51°20.47 3°0.68 14.5 228 16.7 101490 91
2005-08-23 07:31:58 51°20.475 3°0.703 14.6 313 16.7 101490 91
2005-08-23 07:32:03 51°20.481 3°0.727 13.9 308 16.7 101490 91
2005-08-23 07:32:07 51°20.487 3°0.748 12.9 313 16.7 101490 91
2005-08-23 07:32:12 51°20.492 3°0.773 11.8 320 16.7 101510 91
2005-08-23 07:32:15 51°20.496 3°0.787 14.3 308 16.7 101510 91
2005-08-23 07:32:22 51°20.505 3°0.819 12.9 316 16.7 101500 91
2005-08-23 07:32:27 51°20.51 3°0.84 13.6 227 16.7 101500 91
2005-08-23 07:32:33 51°20.519 3°0.868 13.5 42 16.7 101500 91
2005-08-23 07:32:38 51°20.523 3°0.892 13.1 230 16.7 101500 91
2005-08-23 07:32:43 51°20.531 3°0.915 13.3 313 16.8 101500 91
2005-08-23 07:32:48 51°20.536 3°0.94 14.1 231 16.8 101500 91
2005-08-23 07:32:52 51°20.543 3°0.96 14 310 16.8 101500 91
2005-08-23 07:32:58 51°20.549 3°0.989 11.7 318 16.8 101500 91
2005-08-23 07:33:03 51°20.557 3°1.008 13.1 228 16.8 101500 91
2005-08-23 07:33:07 51°20.561 3°1.031 13.2 228 16.8 101500 91
2005-08-23 07:33:13 51°20.569 3°1.055 11.5 315 16.8 101500 91
2005-08-23 07:33:18 51°20.575 3°1.081 15.1 227 16.8 101500 91
2005-08-23 07:33:23 51°20.58 3°1.102 14.9 312 16.8 101500 91
2005-08-23 07:33:27 51°20.586 3°1.124 14.6 311 16.8 101500 91
2005-08-23 07:33:33 51°20.593 3°1.151 12.8 313 16.8 101500 91
2005-08-23 07:33:38 51°20.599 3°1.176 13.8 310 16.8 101500 91
2005-08-23 07:33:43 51°20.605 3°1.196 13.3 308 16.8 101510 91
2005-08-23 07:33:48 51°20.61 3°1.221 12.6 313 16.8 101510 91
2005-08-23 07:33:52 51°20.617 3°1.241 12.6 313 16.8 101510 91
2005-08-23 07:33:57 51°20.622 3°1.265 13.4 307 16.8 101510 91
2005-08-23 07:34:03 51°20.628 3°1.291 15.4 304 16.8 101510 91
2005-08-23 07:34:08 51°20.635 3°1.314 12.1 315 16.8 101510 91
2005-08-23 07:34:12 51°20.64 3°1.334 13.5 314 16.8 101510 91
2005-08-23 07:34:18 51°20.647 3°1.361 13.3 310 16.8 101510 91
2005-08-23 07:34:23 51°20.653 3°1.387 10.6 312 16.8 101500 91
2005-08-23 07:34:27 51°20.659 3°1.406 12.7 307 16.8 101500 91
2005-08-23 07:34:32 51°20.666 3°1.429 13.1 318 16.8 101520 91
2005-08-23 07:34:35 51°20.668 3°1.444 14.5 312 16.8 101520 91
2005-08-23 07:34:43 51°20.678 3°1.479 11.5 318 16.8 101510 91
2005-08-23 07:34:48 51°20.686 3°1.504 15.3 308 16.8 101510 91
2005-08-23 07:34:52 51°20.691 3°1.52 11.9 323 16.8 101500 92
2005-08-23 07:34:58 51°20.698 3°1.551 16.4 314 16.8 101500 92
2005-08-23 07:35:03 51°20.703 3°1.573 14.2 314 16.8 101500 92
2005-08-23 07:35:08 51°20.71 3°1.596 15.5 314 16.8 101500 92
2005-08-23 07:35:13 51°20.715 3°1.62 13.6 232 16.8 101480 92
2005-08-23 07:35:18 51°20.722 3°1.645 14.6 314 16.8 101480 92
2005-08-23 07:35:23 51°20.728 3°1.666 14.1 313 16.8 101490 92
2005-08-23 07:35:27 51°20.733 3°1.687 15.5 314 16.8 101490 92
2005-08-23 07:35:33 51°20.739 3°1.714 14.3 314 16.8 101490 92
2005-08-23 07:35:38 51°20.746 3°1.74 13.3 229 16.8 101490 92
2005-08-23 07:35:43 51°20.752 3°1.761 13.4 312 16.8 101500 92
2005-08-23 07:35:47 51°20.757 3°1.782 14.3 229 16.8 101500 92
2005-08-23 07:35:53 51°20.765 3°1.809 15 310 16.8 101500 91
2005-08-23 07:35:58 51°20.77 3°1.831 14.3 314 16.8 101500 91
2005-08-23 07:36:03 51°20.777 3°1.854 15 311 16.8 101510 91
2005-08-23 07:36:07 51°20.782 3°1.875 14.6 310 16.8 101510 91
2005-08-23 07:36:12 51°20.788 3°1.899 12.8 311 16.8 101500 91
2005-08-23 07:36:15 51°20.792 3°1.914 15.1 314 16.8 101500 91
2005-08-23 07:36:23 51°20.8 3°1.948 13.5 309 16.7 101500 91
2005-08-23 07:36:27 51°20.806 3°1.967 13.7 315 16.7 101500 91
2005-08-23 07:36:32 51°20.812 3°1.991 14.1 306 16.8 101500 91
2005-08-23 07:36:37 51°20.818 3°2.016 12.9 315 16.8 101500 91
2005-08-23 07:36:43 51°20.823 3°2.043 14.9 314 16.7 101500 92
2005-08-23 07:36:47 51°20.831 3°2.062 15.3 314 16.7 101500 92
2005-08-23 07:36:51 51°20.835 3°2.082 13.2 312 16.7 101510 92
2005-08-23 07:36:58 51°20.844 3°2.111 14.8 313 16.7 101510 92
2005-08-23 07:37:03 51°20.85 3°2.134 13.7 314 16.7 101510 92
2005-08-23 07:37:07 51°20.855 3°2.152 14.7 315 16.7 101510 92
2005-08-23 07:37:13 51°20.862 3°2.181 13.6 310 16.7 101500 92
2005-08-23 07:37:18 51°20.868 3°2.204 13.2 314 16.7 101500 92
2005-08-23 07:37:23 51°20.874 3°2.228 13.6 312 16.7 101510 92
2005-08-23 07:37:27 51°20.88 3°2.246 14.8 229 16.7 101510 92
2005-08-23 07:37:33 51°20.887 3°2.275 13.3 313 16.7 101500 92
2005-08-23 07:37:38 51°20.893 3°2.296 13.9 314 16.7 101500 92
2005-08-23 07:37:43 51°20.899 3°2.319 12.8 227 16.7 101510 92
2005-08-23 07:37:47 51°20.904 3°2.34 14.1 313 16.7 101510 92
2005-08-23 07:37:53 51°20.913 3°2.366 12.1 316 16.8 101500 92
2005-08-23 07:37:58 51°20.918 3°2.39 14.3 312 16.8 101500 92
2005-08-23 07:38:03 51°20.924 3°2.411 13.2 316 16.8 101500 92
2005-08-23 07:38:07 51°20.929 3°2.43 14.2 313 16.8 101500 92
2005-08-23 07:38:11 51°20.933 3°2.449 12.4 227 16.7 101500 92
2005-08-23 07:38:18 51°20.942 3°2.483 14.7 314 16.7 101500 92
2005-08-23 07:38:23 51°20.947 3°2.504 14.5 230 16.8 101490 92
2005-08-23 07:38:27 51°20.952 3°2.525 12.2 318 16.8 101490 92
2005-08-23 07:38:32 51°20.957 3°2.549 14.1 228 16.8 101500 92
2005-08-23 07:38:37 51°20.964 3°2.571 12.8 318 16.8 101500 92
2005-08-23 07:38:43 51°20.97 3°2.597 14.9 309 16.8 101500 92
2005-08-23 07:38:48 51°20.976 3°2.621 12 227 16.8 101500 92
2005-08-23 07:38:52 51°20.981 3°2.641 13.9 312 16.8 101510 92
2005-08-23 07:38:57 51°20.986 3°2.664 13.1 42 16.8 101510 92
2005-08-23 07:39:03 51°20.994 3°2.689 12.2 228 16.8 101510 92
2005-08-23 07:39:08 51°20.998 3°2.713 11.8 228 16.8 101510 92
2005-08-23 07:39:13 51°21.005 3°2.735 13.2 316 16.8 101510 92
2005-08-23 07:39:18 51°21.011 3°2.76 13.4 312 16.8 101510 92
2005-08-23 07:39:23 51°21.017 3°2.78 12.1 316 16.8 101500 92
2005-08-23 07:39:27 51°21.022 3°2.801 13.2 313 16.8 101500 92
2005-08-23 07:39:33 51°21.028 3°2.827 13.2 226 16.8 101510 92
2005-08-23 07:39:38 51°21.034 3°2.85 16 309 16.8 101510 92
2005-08-23 07:39:43 51°21.04 3°2.872 11.9 41 16.8 101510 92
2005-08-23 07:39:47 51°21.045 3°2.893 13.6 306 16.8 101510 92
2005-08-23 07:39:51 51°21.05 3°2.911 14.1 311 16.8 101510 92
2005-08-23 07:39:58 51°21.058 3°2.943 14.1 314 16.8 101510 92
2005-08-23 07:40:02 51°21.063 3°2.962 13.3 312 16.8 101500 92
2005-08-23 07:40:07 51°21.069 3°2.985 13.2 231 16.8 101500 92
2005-08-23 07:40:12 51°21.076 3°3.007 13.7 313 16.8 101500 92
2005-08-23 07:40:18 51°21.082 3°3.034 13.5 311 16.8 101500 92
2005-08-23 07:40:23 51°21.087 3°3.055 12.6 228 16.8 101500 92
2005-08-23 07:40:28 51°21.095 3°3.078 15.8 306 16.8 101500 92
2005-08-23 07:40:33 51°21.098 3°3.102 13 314 16.8 101510 92
2005-08-23 07:40:38 51°21.106 3°3.126 11.6 314 16.8 101510 92
2005-08-23 07:40:43 51°21.111 3°3.147 12 309 16.8 101500 92
2005-08-23 07:40:47 51°21.117 3°3.167 11.2 43 16.8 101500 92
2005-08-23 07:40:53 51°21.124 3°3.193 11.3 229 16.8 101490 92
2005-08-23 07:40:58 51°21.129 3°3.215 13.4 311 16.8 101490 92
2005-08-23 07:41:03 51°21.134 3°3.239 12 42 16.8 101510 92
2005-08-23 07:41:07 51°21.14 3°3.259 11.4 312 16.8 101510 92
2005-08-23 07:41:12 51°21.145 3°3.282 13.9 314 16.8 101510 93
2005-08-23 07:41:15 51°21.149 3°3.295 12.8 316 16.8 101510 93
2005-08-23 07:41:23 51°21.156 3°3.331 14.8 312 16.8 101500 93
2005-08-23 07:41:27 51°21.163 3°3.348 13.6 323 16.8 101500 93
2005-08-23 07:41:33 51°21.168 3°3.376 17.6 309 16.8 101510 93
2005-08-23 07:41:38 51°21.175 3°3.398 13.3 314 16.8 101510 93
2005-08-23 07:41:43 51°21.18 3°3.424 14.1 308 16.8 101510 93
2005-08-23 07:41:48 51°21.186 3°3.443 13.5 312 16.8 101510 93
2005-08-23 07:41:52 51°21.19 3°3.464 14.4 313 16.8 101520 93
2005-08-23 07:41:58 51°21.198 3°3.492 12.7 315 16.8 101520 93
2005-08-23 07:42:03 51°21.203 3°3.513 12.3 307 16.8 101500 92
2005-08-23 07:42:07 51°21.207 3°3.533 14.6 305 16.8 101500 92
2005-08-23 07:42:13 51°21.214 3°3.558 13.2 42 16.8 101500 92
2005-08-23 07:42:18 51°21.22 3°3.583 12.9 312 16.8 101500 92
2005-08-23 07:42:22 51°21.225 3°3.601 13.1 310 16.8 101510 92
2005-08-23 07:42:27 51°21.23 3°3.625 14.5 228 16.8 101510 92
2005-08-23 07:42:32 51°21.237 3°3.646 12.7 44 16.8 101490 92
2005-08-23 07:42:35 51°21.239 3°3.661 15 314 16.8 101490 92
2005-08-23 07:42:43 51°21.25 3°3.693 11.6 308 16.8 101510 92
2005-08-23 07:42:48 51°21.253 3°3.72 12.2 228 16.8 101510 92
2005-08-23 07:42:52 51°21.26 3°3.734 13.1 309 16.8 101510 92
2005-08-23 07:42:58 51°21.265 3°3.764 11.4 320 16.8 101510 92
2005-08-23 07:43:03 51°21.272 3°3.783 13.4 310 16.8 101500 92
2005-08-23 07:43:07 51°21.276 3°3.804 12 42 16.8 101500 92
2005-08-23 07:43:12 51°21.282 3°3.827 14.1 312 16.8 101510 92
2005-08-23 07:43:17 51°21.288 3°3.849 12.6 316 16.8 101510 92
2005-08-23 07:43:23 51°21.295 3°3.873 14.1 310 16.9 101510 93
2005-08-23 07:43:28 51°21.3 3°3.897 13.1 229 16.9 101510 93
2005-08-23 07:43:33 51°21.306 3°3.918 13.1 316 16.9 101510 93
2005-08-23 07:43:38 51°21.312 3°3.944 13.4 41 16.9 101510 93
2005-08-23 07:43:43 51°21.318 3°3.963 15.2 315 16.9 101500 93
2005-08-23 07:43:47 51°21.322 3°3.984 13.8 312 16.9 101500 93
2005-08-23 07:43:53 51°21.33 3°4.009 12.8 319 16.9 101490 93
2005-08-23 07:43:58 51°21.335 3°4.031 15.5 315 16.9 101490 93
2005-08-23 07:44:03 51°21.34 3°4.054 15.4 228 16.9 101510 93
2005-08-23 07:44:08 51°21.347 3°4.079 15.2 314 16.9 101510 93
2005-08-23 07:44:12 51°21.349 3°4.096 14.7 311 16.9 101500 92
2005-08-23 07:44:18 51°21.358 3°4.123 12.1 314 16.9 101500 92
2005-08-23 07:44:23 51°21.362 3°4.144 12.8 308 16.9 101500 92
2005-08-23 07:44:28 51°21.367 3°4.167 11.5 315 16.9 101500 92
2005-08-23 07:44:33 51°21.374 3°4.19 14 308 16.8 101490 92
2005-08-23 07:44:38 51°21.38 3°4.214 12.9 315 16.8 101490 92
2005-08-23 07:44:43 51°21.384 3°4.234 14.7 314 16.8 101500 92
2005-08-23 07:44:47 51°21.389 3°4.252 14.4 313 16.8 101500 92
2005-08-23 07:44:53 51°21.396 3°4.28 14.3 42 16.8 101510 92
2005-08-23 07:44:58 51°21.403 3°4.305 15.3 316 16.8 101510 92
2005-08-23 07:45:03 51°21.409 3°4.324 14.4 228 16.8 101510 92
2005-08-23 07:45:08 51°21.413 3°4.348 13.9 318 16.8 101510 92
2005-08-23 07:45:13 51°21.42 3°4.371 13.7 43 16.9 101510 92
2005-08-23 07:45:18 51°21.426 3°4.394 13.5 227 16.9 101510 92
2005-08-23 07:45:23 51°21.431 3°4.415 14.1 313 16.8 101510 92
2005-08-23 07:45:28 51°21.437 3°4.438 13.9 312 16.8 101510 92
2005-08-23 07:45:33 51°21.443 3°4.461 14.3 310 16.8 101510 92
2005-08-23 07:45:38 51°21.45 3°4.484 13.8 309 16.8 101510 92
2005-08-23 07:45:43 51°21.454 3°4.505 12.2 315 16.8 101490 92
2005-08-23 07:45:47 51°21.458 3°4.522 12.4 311 16.8 101490 92
2005-08-23 07:45:51 51°21.463 3°4.541 12.9 314 16.8 101520 91
2005-08-23 07:45:58 51°21.47 3°4.575 11.7 37 16.8 101520 91
2005-08-23 07:46:03 51°21.476 3°4.595 15 311 16.8 101520 91
2005-08-23 07:46:07 51°21.48 3°4.614 13.9 229 16.8 101520 91
2005-08-23 07:46:13 51°21.487 3°4.641 16.1 228 16.8 101520 91
2005-08-23 07:46:18 51°21.493 3°4.664 15 312 16.8 101520 91
2005-08-23 07:46:23 51°21.498 3°4.686 14.2 308 16.8 101520 92
2005-08-23 07:46:28 51°21.504 3°4.708 14.9 310 16.8 101520 92
2005-08-23 07:46:33 51°21.51 3°4.731 12.7 227 16.8 101510 92
2005-08-23 07:46:38 51°21.517 3°4.755 14.2 311 16.8 101510 92
2005-08-23 07:46:43 51°21.521 3°4.777 15 308 16.8 101510 91
2005-08-23 07:46:48 51°21.528 3°4.799 13.2 228 16.8 101510 91
2005-08-23 07:46:53 51°21.534 3°4.821 13 308 16.8 101510 91
2005-08-23 07:46:58 51°21.54 3°4.846 13.3 313 16.8 101510 91
2005-08-23 07:47:03 51°21.544 3°4.867 13.5 316 16.8 101500 91
2005-08-23 07:47:07 51°21.549 3°4.884 14.9 311 16.8 101500 91
2005-08-23 07:47:11 51°21.555 3°4.904 13.5 316 16.9 101500 92
2005-08-23 07:47:18 51°21.563 3°4.936 14 43 16.9 101500 92
2005-08-23 07:47:23 51°21.568 3°4.957 14.6 316 16.9 101500 92
2005-08-23 07:47:27 51°21.574 3°4.977 14.2 229 16.9 101500 92
2005-08-23 07:47:32 51°21.58 3°4.999 14.6 316 16.8 101500 92
2005-08-23 07:47:38 51°21.587 3°5.025 15.6 313 16.8 101500 92
2005-08-23 07:47:43 51°21.592 3°5.046 13.6 313 16.8 101500 92
2005-08-23 07:47:47 51°21.598 3°5.067 12.6 312 16.8 101500 92
2005-08-23 07:47:52 51°21.604 3°5.089 14.5 233 16.8 101500 91
2005-08-23 07:47:56 51°21.609 3°5.107 13.4 303 16.8 101500 91
2005-08-23 07:48:03 51°21.617 3°5.136 13.5 312 16.8 101490 91
2005-08-23 07:48:07 51°21.621 3°5.155 13.4 307 16.8 101490 91
2005-08-23 07:48:11 51°21.627 3°5.175 12.3 311 16.8 101510 91
2005-08-23 07:48:16 51°21.632 3°5.198 14.5 228 16.8 101510 91
2005-08-23 07:48:23 51°21.639 3°5.227 13.4 312 16.8 101520 92
2005-08-23 07:48:27 51°21.644 3°5.248 14 311 16.8 101520 92
2005-08-23 07:48:33 51°21.65 3°5.274 13.5 311 16.9 101500 92
2005-08-23 07:48:38 51°21.656 3°5.298 13 311 16.9 101500 92
2005-08-23 07:48:43 51°21.661 3°5.319 12.1 319 16.9 101500 92
2005-08-23 07:48:47 51°21.667 3°5.339 13 319 16.9 101500 92
2005-08-23 07:48:51 51°21.67 3°5.358 14.9 42 16.9 101510 92
2005-08-23 07:48:58 51°21.68 3°5.388 13.3 318 16.9 101510 92
2005-08-23 07:49:03 51°21.683 3°5.41 14.1 314 16.9 101510 92
2005-08-23 07:49:08 51°21.69 3°5.432 14.7 313 16.9 101510 92
2005-08-23 07:49:12 51°21.694 3°5.453 15.6 309 16.9 101510 92
2005-08-23 07:49:18 51°21.698 3°5.478 12.4 318 16.9 101510 92
2005-08-23 07:49:23 51°21.705 3°5.5 14.9 312 16.9 101510 92
2005-08-23 07:49:28 51°21.71 3°5.526 14.7 312 16.9 101510 92
2005-08-23 07:49:33 51°21.717 3°5.546 14 310 16.9 101510 92
2005-08-23 07:49:38 51°21.721 3°5.569 14.8 311 16.9 101510 92
2005-08-23 07:49:43 51°21.727 3°5.591 12.2 313 16.9 101510 92
2005-08-23 07:49:48 51°21.732 3°5.615 12 312 16.9 101510 92
2005-08-23 07:49:52 51°21.736 3°5.636 15 229 16.9 101500 92
2005-08-23 07:49:58 51°21.742 3°5.663 14.2 314 16.9 101500 92
2005-08-23 07:50:03 51°21.746 3°5.684 16.1 313 16.9 101500 92
2005-08-23 07:50:08 51°21.75 3°5.709 14.5 314 16.9 101500 92
2005-08-23 07:50:13 51°21.757 3°5.731 13.1 315 16.9 101510 92
2005-08-23 07:50:18 51°21.759 3°5.758 12.5 42 16.9 101510 92
2005-08-23 07:50:23 51°21.765 3°5.779 14.7 314 16.9 101500 92
2005-08-23 07:50:27 51°21.767 3°5.8 14.3 316 16.9 101500 92
2005-08-23 07:50:33 51°21.773 3°5.826 14.7 310 16.9 101500 92
2005-08-23 07:50:38 51°21.778 3°5.85 14.2 41 16.9 101500 92
2005-08-23 07:50:43 51°21.783 3°5.873 14.3 313 16.9 101520 92
2005-08-23 07:50:48 51°21.786 3°5.897 15.8 309 16.9 101520 92
2005-08-23 07:50:51 51°21.79 3°5.913 12.9 311 16.9 101500 92
2005-08-23 07:50:58 51°21.794 3°5.947 13.3 230 16.9 101500 92
2005-08-23 07:51:03 51°21.798 3°5.969 13.4 314 16.9 101510 92
2005-08-23 07:51:07 51°21.8 3°5.99 15.3 229 16.9 101510 92
2005-08-23 07:51:13 51°21.807 3°6.017 13.2 228 16.9 101500 92
2005-08-23 07:51:18 51°21.809 3°6.04 15.8 312 16.9 101500 92
2005-08-23 07:51:23 51°21.814 3°6.063 16.3 228 16.9 101520 92
2005-08-23 07:51:28 51°21.818 3°6.087 14.9 315 16.9 101520 92
2005-08-23 07:51:33 51°21.822 3°6.11 13.4 42 16.9 101490 92
2005-08-23 07:51:37 51°21.826 3°6.13 15 313 16.9 101490 92
2005-08-23 07:51:42 51°21.832 3°6.152 13.4 313 16.9 101510 92
2005-08-23 07:51:48 51°21.836 3°6.179 15.3 313 16.9 101510 92
2005-08-23 07:51:52 51°21.841 3°6.199 14.5 310 16.8 101500 92
2005-08-23 07:51:55 51°21.843 3°6.21 14.9 309 16.8 101500 92
2005-08-23 07:52:03 51°21.849 3°6.246 14.9 308 16.8 101500 91
2005-08-23 07:52:07 51°21.853 3°6.266 14.6 307 16.8 101500 91
2005-08-23 07:52:11 51°21.855 3°6.283 15.1 313 16.8 101510 91
2005-08-23 07:52:16 51°21.859 3°6.309 14.5 311 16.8 101510 91
2005-08-23 07:52:23 51°21.864 3°6.339 14.5 309 16.8 101520 91
2005-08-23 07:52:28 51°21.867 3°6.363 13.4 315 16.8 101520 91
2005-08-23 07:52:32 51°21.871 3°6.383 14.2 308 16.8 101510 91
2005-08-23 07:52:37 51°21.874 3°6.407 15 305 16.8 101510 91
2005-08-23 07:52:43 51°21.879 3°6.432 12.6 305 16.8 101510 92
2005-08-23 07:52:47 51°21.88 3°6.451 11.8 310 16.8 101510 92
2005-08-23 07:52:53 51°21.883 3°6.48 12.7 293 16.8 101520 92
2005-08-23 07:52:58 51°21.885 3°6.502 11.6 309 16.8 101520 92
2005-08-23 07:53:03 51°21.887 3°6.528 12.9 299 16.8 101500 92
2005-08-23 07:53:08 51°21.888 3°6.551 13.5 300 16.8 101500 92
2005-08-23 07:53:12 51°21.891 3°6.571 13.9 298 16.8 101520 92
2005-08-23 07:53:18 51°21.893 3°6.599 13.5 301 16.8 101520 92
2005-08-23 07:53:23 51°21.894 3°6.621 13 298 16.8 101530 92
2005-08-23 07:53:27 51°21.895 3°6.64 11.2 302 16.8 101530 92
2005-08-23 07:53:33 51°21.897 3°6.671 12.8 298 16.8 101530 92
2005-08-23 07:53:38 51°21.898 3°6.694 11.5 295 16.8 101530 92
2005-08-23 07:53:43 51°21.899 3°6.715 12.5 303 16.8 101530 92
2005-08-23 07:53:47 51°21.9 3°6.734 13.6 308 16.8 101530 92
2005-08-23 07:53:53 51°21.901 3°6.763 13.2 306 16.8 101530 92
2005-08-23 07:53:58 51°21.903 3°6.789 13.3 313 16.8 101530 92
2005-08-23 07:54:03 51°21.905 3°6.808 14 313 16.8 101530 92
2005-08-23 07:54:07 51°21.905 3°6.829 13.5 313 16.8 101530 92
2005-08-23 07:54:11 51°21.909 3°6.846 12.2 308 16.9 101520 92
2005-08-23 07:54:18 51°21.911 3°6.88 15.2 312 16.9 101520 92
2005-08-23 07:54:23 51°21.917 3°6.901 14.6 304 16.8 101530 92
2005-08-23 07:54:28 51°21.918 3°6.926 13.7 231 16.8 101530 92
2005-08-23 07:54:33 51°21.925 3°6.947 14.3 312 16.8 101520 92
2005-08-23 07:54:37 51°21.927 3°6.967 12.1 316 16.8 101520 92
2005-08-23 07:54:43 51°21.931 3°6.992 14.8 309 16.8 101530 92
2005-08-23 07:54:47 51°21.934 3°7.013 13.8 311 16.8 101530 92
2005-08-23 07:54:53 51°21.936 3°7.038 13.8 312 16.8 101520 92
2005-08-23 07:54:58 51°21.938 3°7.061 13.5 313 16.8 101520 92
2005-08-23 07:55:03 51°21.942 3°7.086 14.4 309 16.8 101530 92
2005-08-23 07:55:08 51°21.943 3°7.108 13.2 313 16.8 101530 92
2005-08-23 07:55:13 51°21.946 3°7.131 13.9 309 16.8 101530 92
2005-08-23 07:55:17 51°21.948 3°7.152 13.9 312 16.8 101530 92
2005-08-23 07:55:23 51°21.951 3°7.18 14.2 311 16.8 101520 92
2005-08-23 07:55:27 51°21.953 3°7.198 12.9 308 16.8 101520 92
2005-08-23 07:55:33 51°21.955 3°7.225 12.8 228 16.8 101520 92
2005-08-23 07:55:38 51°21.959 3°7.25 13.5 302 16.8 101520 92